カタログに戻る

STARLINK-35802

運用中通信VLEO
NORAD 66289·PAYLOAD·🇺🇸 United States

打ち上げ Oct 31, 2025 から Vandenberg Space Force Base

Loading…

次のパス (今後24時間)

TLE

最新Source: CelesTrak SupGP

元期: Sep 15, 2026, 02:39 UTC

1 66289C 25247AA  26258.11090278  .00017874  00000+0  52807-3 0  2581
2 66289  53.1608  27.1493 0001155  79.5617  62.7011 15.34383251    12

AllMySatでSTARLINK-35802をリアルタイム追跡

Download on the App Store